Location: Chochol
(49.7771°N, 14.9780°E)
Time: 15:17:38
(UTC+00:00)

Cosmos 1408 - Pass Details

Date: 09 April 2020
Orbit: 470 x 494 km, 82.6° (Epoch: 02 June)

Event Time Altitude Azimuth Distance (km) Brightness Sun altitude
Rises 19:06:32 0° 3° (N) 2,565 6.6 -13.1°
Reaches altitude 10° 19:09:10 10° 23° (NNE) 1,684 5.4 -13.4°
Maximum altitude 19:11:45 18° 68° (ENE) 1,269 4.3 -13.8°
Enters shadow 19:12:19 17° 80° (E) 1,292 4.3 -13.9°
